CAPE
0 0 0 0 0 0 0 0 18 21 18 9 1 2 0 0 0 0 0 0 0 0 0 0 0 0 0 0 0 0 0 0 0 0 0 0 0 0 5 13 7 0 0
0 0 0 0 0 0 0 0 0 16 13 5 1 0 0 0 0 0 0 0 0 0 0 0 0 0 0 0 0 0 0 0 0 0 0 0 0 0 1 0 0 2 0
0 0 0 0 0 0 0 0 0 0 2 0 1 0 1 0 0 0 0 0 0 0 0 0 0 0 0 0 0 0 0 0 0 0 0 0 0 0 0 1 0 0 0
0 0 0 0 0 0 0 0 0 0 0 0 0 0 0 0 0 0 0 0 0 0 0 0 0 0 0 0 0 0 0 0 0 0 0 0 0 0 0 0 0 0 0
0 0 0 0 0 0 0 0 0 12 15 26 9 0 13 5 0 0 0 0 0 0 0 0 0 0 0 0 0 0 0 0 0 0 0 0 0 0 0 0 0 0 0
0 0 0 0 0 0 0 0 1 4 23 35 24 0 0 11 10 0 0 0 0 0 0 0 0 0 0 0 0 0 0 0 0 0 0 0 0 0 0 0 0 0 0
1 0 1 1 1 0 1 1 0 3 10 32 26 25 23 22 22 3 0 0 0 0 0 0 0 0 0 0 0 0 0 0 0 0 0 0 0 0 0 0 0 0 0
2 2 2 2 2 3 3 2 0 0 1 9 13 20 24 20 11 0 0 0 0 0 0 0 0 0 0 0 0 0 0 0 0 0 0 0 0 0 0 0 0 0 0
4 4 2 2 2 3 3 3 4 2 1 0 3 2 13 4 0 0 0 0 0 0 0 0 0 0 0 0 0 0 0 0 0 0 0 0 0 0 0 0 0 0 0
2 2 2 2 2 2 1 3 2 3 3 1 0 2 6 12 12 3 2 0 0 0 0 0 0 0 0 0 0 0 0 0 0 0 0 0 0 0 0 0 0 0 0
1 2 2 2 2 2 1 3 3 4 2 1 0 2 8 14 9 5 2 1 0 0 0 0 0 0 0 0 0 0 0 0 0 0 0 0 0 0 0 0 0 0 0
0 1 1 2 2 2 2 3 3 4 3 2 2 1 0 1 1 0 0 0 1 0 0 0 0 0 0 0 0 0 0 0 0 0 0 0 0 0 0 0 0 0 0
0 0 0 2 2 1 3 3 3 3 3 3 4 3 0 0 0 0 0 0 0 0 0 0 0 0 0 0 0 0 0 0 0 0 0 0 0 0 0 0 0 0 0
0 0 0 1 1 1 1 3 3 3 2 3 3 5 2 1 0 0 0 0 1 0 0 0 0 0 0 0 0 0 0 0 0 0 0 0 0 0 0 0 0 0 0
1 0 0 1 1 1 1 1 2 2 3 3 3 4 5 2 2 0 0 2 0 0 0 1 1 1 0 0 0 0 0 0 0 0 0 0 0 0 0 0 0 0 0
0 0 0 0 0 0 0 0 1 2 1 2 3 1 2 5 2 3 1 0 0 1 0 0 0 0 0 0 0 0 0 0 0 0 0 0 0 0 0 0 0 0 0
0 0 0 0 0 0 0 0 1 1 1 2 2 3 3 2 4 2 3 0 0 0 0 0 0 0 0 0 0 0 0 0 0 0 0 0 0 0 0 0 0 0 0
0 0 0 0 0 0 0 0 0 0 1 1 1 2 3 1 1 1 3 2 2 2 0 0 0 0 0 0 0 0 0 0 0 0 2 0 0 0 0 0 0 0 0
0 0 0 0 0 0 0 0 0 0 0 0 1 1 3 1 0 2 3 2 1 1 1 1 0 1 0 0 0 0 0 0 1 0 0 0 0 0 0 0 0 0 0
0 0 0 0 0 0 0 0 0 0 0 0 0 0 1 2 1 1 2 2 0 1 2 1 1 1 1 1 1 0 0 0 0 0 0 0 0 0 0 0 0 0 0
0 0 0 0 0 0 0 0 0 0 0 1 1 1 1 1 0 1 1 1 1 0 2 0 0 0 2 1 1 1 0 0 0 0 0 0 0 0 1 1 0 0 0
0 0 0 0 0 0 0 0 0 0 0 0 0 0 0 1 0 0 1 1 2 0 1 0 0 0 0 3 2 1 0 0 0 0 0 0 0 0 1 0 0 1 1
0 0 0 0 0 0 0 0 0 0 0 0 0 0 0 0 0 0 0 0 2 1 1 2 0 0 0 1 1 3 1 1 0 0 0 0 0 1 1 0 1 2 0
0 0 0 0 0 0 0 0 0 0 0 0 0 0 0 0 0 1 0 0 0 0 3 3 3 3 3 2 2 1 1 0 0 1 1 1 1 1 0 0 0 0 0
0 0 0 0 0 0 0 0 0 0 0 0 0 0 0 0 0 0 0 0 0 1 1 0 1 1 0 2 1 1 1 2 0 0 0 0 0 0 0 0 0 0 0
0 0 0 0 0 0 0 0 0 0 0 0 0 0 0 0 0 0 0 0 1 1 2 1 2 0 1 1 1 0 0 0 1 0 0 0 0 0 0 0 0 0 1
CIN
0 0 0 0 0 0 0 0 -50 -66 -68 -60 0 0 0 0 0 0 0 0 0 0 0 0 0 0 0 0 0 0 0 0 0 0 0 0 -1 -1 -54 -56 -39 -1 -1
0 0 0 0 0 0 0 0 0 -50 -55 -60 -56 0 0 0 0 0 0 0 0 0 0 0 0 0 0 0 0 0 0 0 0 0 0 -6 -3 0 0 0 0 -38 0
0 0 0 0 0 0 0 0 0 0 -26 -3 0 0 0 0 0 0 0 0 0 0 0 0 0 0 0 0 0 0 0 0 0 0 0 0 -1 0 0 0 0 -2 0
0 0 0 0 0 0 0 0 0 0 0 0 0 0 0 0 0 0 0 0 0 0 0 0 0 0 0 0 0 0 0 0 0 0 0 0 0 0 0 0 0 0 0
0 0 0 0 0 0 0 0 0 -67 -55 -43 -31 0 -31 -55 -4 0 0 0 0 0 0 0 0 0 0 0 0 0 0 0 0 0 0 0 0 0 0 0 0 0 0
0 0 0 0 0 0 0 0 -2 -37 -62 -48 -55 0 0 -41 -57 -19 -3 0 0 0 0 0 0 0 0 0 0 0 0 0 0 0 0 0 0 0 0 0 0 0 0
0 0 0 0 0 0 0 0 0 -1 -62 -66 -67 -58 -45 -42 -38 -19 0 0 0 0 0 0 0 0 0 0 0 0 0 0 0 0 0 0 0 0 0 0 0 0 0
0 0 0 0 0 0 0 0 0 0 -1 -63 -60 -72 -63 -45 -48 0 0 0 0 0 0 0 0 0 0 0 0 0 0 0 0 0 0 0 0 0 0 0 0 0 0
0 0 0 0 0 0 0 0 0 0 0 -1 0 -35 -66 -63 0 -3 -5 0 0 0 0 0 0 0 0 0 0 0 0 0 0 0 0 0 0 0 0 0 0 0 0
0 0 0 0 0 0 0 0 0 0 0 0 0 0 -34 -32 -31 -40 -33 0 0 0 0 0 0 0 0 0 0 0 0 0 0 0 0 0 0 0 0 0 0 0 0
0 0 0 0 0 0 0 0 0 0 0 0 0 -44 -41 -27 -30 -22 -22 -16 0 0 0 0 0 0 0 0 0 0 0 0 0 0 0 0 0 0 0 0 0 0 0
0 0 0 0 0 0 0 0 0 0 0 0 0 -5 -9 0 0 0 0 0 -1 -1 0 0 0 0 0 0 0 0 0 0 0 0 0 0 0 0 0 0 0 0 0
0 0 0 0 0 0 0 0 0 0 0 0 0 0 0 0 0 0 0 0 0 0 0 0 0 0 0 0 0 0 0 0 0 0 0 0 0 0 0 0 0 0 0
0 0 0 0 0 0 0 0 0 0 0 0 0 0 0 0 0 0 0 -4 0 0 0 0 0 0 0 0 0 0 0 0 0 0 0 0 0 0 0 0 0 0 0
0 0 0 0 0 0 0 0 0 0 0 0 0 0 0 0 0 0 0 -1 -3 0 0 0 0 0 0 0 0 0 0 0 0 0 0 0 0 0 0 0 0 0 0
0 0 0 0 0 0 0 0 0 0 0 0 0 0 0 0 0 0 0 0 0 -4 -1 0 0 0 0 0 0 0 0 0 0 0 0 0 0 0 0 0 0 0 0
0 0 0 0 0 0 0 0 0 0 0 0 0 0 0 0 0 0 0 0 0 0 0 0 0 0 0 0 0 0 0 0 0 0 0 0 0 0 0 0 0 0 0
0 0 0 0 0 0 0 0 0 0 0 0 0 0 0 0 0 0 0 0 0 0 0 0 0 0 0 0 0 0 0 0 0 0 -37 0 0 0 0 0 0 0 0
0 0 0 0 0 0 0 0 0 0 0 0 0 0 0 0 0 0 0 0 0 0 0 0 0 0 0 0 0 0 0 0 -22 -10 0 0 0 0 0 0 0 0 0
0 0 0 0 0 0 0 0 0 0 0 0 0 0 0 0 0 0 0 0 0 0 0 0 0 0 0 0 0 0 0 0 0 0 0 0 0 0 0 0 0 0 0
0 0 0 0 0 0 0 0 0 0 0 0 0 0 0 0 0 0 0 0 0 0 0 0 0 0 0 0 0 0 0 0 0 0 0 0 0 0 0 0 0 0 0
0 0 0 0 0 0 0 0 0 0 0 0 0 0 0 0 0 0 0 0 0 0 0 0 0 0 0 0 0 0 0 0 0 0 0 0 0 0 0 0 0 0 0
0 0 0 0 0 0 0 0 0 0 0 0 0 0 0 0 0 0 0 0 0 0 0 0 0 0 0 0 0 0 0 0 0 0 0 0 0 0 0 0 0 0 0
0 0 0 0 0 0 0 0 0 0 0 0 0 0 0 0 0 0 0 0 0 0 0 0 0 0 0 0 0 0 0 0 0 0 0 0 0 0 0 0 0 0 0
0 0 0 0 0 0 0 0 0 0 0 0 0 0 0 0 0 0 0 0 0 0 0 0 0 0 0 0 0 0 0 0 0 0 0 0 0 0 0 0 0 0 0
0 0 0 0 0 0 0 0 0 0 0 0 0 0 0 0 0 0 0 0 0 0 0 0 0 0 0 0 0 0 0 0 0 0 0 0 0 0 0 0 0 0 0
Wind_Speed
38 35 35 31 29 29 26 21 21 21 19 19 18 19 18 19 19 18 15 12 12 11 11 11 10 11 11 11 10 9 7 8 7 9 12 14 14 14 14 14 13 13 11
27 27 29 30 30 29 28 25 22 21 20 19 19 21 18 20 18 18 17 14 13 12 12 12 12 12 13 12 11 10 11 12 10 12 13 15 17 17 18 17 17 16 15
28 26 26 28 28 30 28 26 23 21 20 20 20 19 18 18 20 19 17 17 15 13 14 14 12 13 13 14 13 11 11 12 13 11 13 15 18 20 20 20 21 19 18
26 25 25 25 25 28 29 29 25 21 20 19 20 21 22 22 22 21 20 19 18 17 16 15 15 14 15 15 14 14 13 12 13 14 17 17 16 20 23 22 23 22 22
26 27 26 26 26 27 28 29 27 25 22 20 20 21 23 22 20 19 19 19 19 18 16 17 15 15 15 15 15 15 15 15 15 15 17 19 20 19 21 23 23 26 24
26 26 25 26 26 26 27 28 28 27 25 23 22 22 23 22 21 20 20 19 19 19 19 19 18 17 16 16 16 16 17 16 16 16 17 20 22 23 23 24 23 24 25
24 25 25 26 26 26 26 28 29 30 29 27 25 24 23 23 23 22 21 20 20 20 19 18 18 18 17 18 17 18 18 18 18 18 19 23 25 24 23 23 23 25 25
22 23 24 25 25 25 25 26 28 30 31 30 29 27 25 24 24 24 23 22 21 20 20 19 19 19 19 19 18 19 20 20 19 20 19 24 26 25 24 25 24 27 27
22 22 23 23 24 25 25 26 27 28 29 31 28 27 26 26 25 25 24 25 23 23 22 21 22 21 20 20 19 21 22 21 22 21 21 22 26 27 26 25 25 26 29
21 21 21 22 22 23 25 25 25 26 28 29 28 27 26 26 27 26 26 26 25 25 24 24 23 24 24 23 23 22 23 24 23 23 23 22 25 28 29 28 27 26 27
21 21 22 22 21 21 22 23 24 25 26 26 26 25 25 25 26 27 28 29 28 26 26 25 24 25 24 23 24 24 24 24 24 24 24 23 25 29 30 29 29 28 28
20 20 21 22 21 22 21 22 22 21 24 23 24 24 23 24 25 27 29 29 30 27 27 27 27 26 25 24 23 24 24 25 25 24 24 24 24 28 30 32 32 31 29
19 19 20 20 21 21 22 21 21 22 23 22 22 23 21 21 25 24 24 24 24 25 24 24 24 23 24 24 23 23 23 24 25 24 25 24 24 26 28 32 34 34 31
19 20 20 20 21 21 22 23 23 22 22 23 23 22 20 22 22 23 22 22 21 21 21 21 22 23 22 22 22 22 24 24 25 25 25 24 24 25 27 28 32 33 33
20 20 21 22 22 22 21 21 21 21 22 21 21 21 20 19 20 21 20 18 18 20 20 20 21 20 20 21 22 22 22 23 22 22 24 25 26 28 27 28 28 30 32
20 21 21 22 22 23 23 22 21 21 20 19 20 20 17 16 17 19 19 18 19 20 20 20 19 19 19 18 18 18 21 22 24 24 23 25 26 27 27 28 28 29 30
21 21 22 22 22 23 23 23 23 21 19 17 17 17 16 17 19 19 18 17 17 18 18 18 17 17 17 15 14 14 15 16 18 23 25 24 26 27 29 26 26 26 28
22 22 22 22 22 22 22 22 21 20 20 19 19 18 17 17 18 18 17 17 16 17 16 15 15 16 16 14 13 12 13 15 18 19 20 24 26 25 25 27 29 30 28
23 21 21 21 20 20 21 21 19 19 19 19 19 19 19 18 19 18 18 17 14 15 14 13 12 12 12 12 12 11 12 14 19 19 19 24 26 24 26 27 24 26 28
21 21 21 20 20 22 21 20 20 20 20 20 20 19 18 16 17 17 16 15 14 14 12 12 13 13 12 13 12 11 10 10 12 14 15 18 21 20 21 21 21 22 21
22 22 22 21 21 23 21 20 20 20 22 22 21 21 20 18 16 15 15 14 13 12 12 12 13 14 15 15 16 15 15 16 18 17 18 18 19 20 21 21 21 23 18
21 21 22 22 22 23 22 20 21 22 21 21 20 20 19 18 20 20 19 19 17 15 15 16 15 17 17 18 20 20 19 19 19 20 20 22 22 22 22 20 21 19 18
21 22 22 22 22 23 21 21 23 23 22 20 20 20 20 19 18 18 19 19 19 20 20 20 21 20 20 19 19 18 17 18 19 19 19 19 19 20 17 17 17 14 17
22 22 22 22 23 23 23 21 22 22 21 20 20 20 20 20 19 19 19 19 19 18 19 21 22 21 20 20 20 20 20 20 20 20 20 18 17 17 15 16 14 15 15
23 23 22 22 23 23 23 22 22 21 22 21 21 21 21 21 21 20 21 21 21 22 23 23 22 23 24 25 25 25 24 24 22 21 20 20 19 18 17 17 15 16 16
23 23 23 23 24 23 23 23 23 22 22 22 22 22 22 22 21 21 21 20 21 22 23 24 25 26 29 30 30 29 29 27 25 24 24 22 19 19 18 18 19 19 18
Wind_Direction
257 258 255 252 250 249 248 246 244 245 239 239 241 247 248 250 251 248 246 246 242 243 238 250 246 242 242 248 253 259 248 268 270 282 292 294 290 282 273 270 262 259 263
259 259 254 255 252 250 246 246 244 241 240 240 244 254 251 251 248 249 249 249 245 241 238 246 246 241 241 245 242 239 258 270 262 277 284 280 284 283 277 271 266 261 263
259 261 260 258 257 252 248 243 243 240 239 242 247 256 255 260 253 250 253 255 247 240 239 245 244 237 240 240 236 232 241 256 261 265 284 284 281 276 277 272 269 265 263
262 263 263 262 261 259 256 250 246 242 242 241 245 248 251 253 255 251 252 252 250 247 248 244 243 243 246 245 238 239 244 245 246 262 277 285 288 276 274 274 269 267 265
263 263 266 266 267 266 261 255 248 246 246 243 247 249 252 256 254 254 250 253 253 249 244 244 245 245 248 245 238 238 243 244 249 252 268 276 280 283 282 273 269 267 268
266 267 270 269 269 269 266 261 252 248 247 245 248 250 252 253 255 254 252 254 253 251 245 245 250 249 248 244 243 244 241 243 250 250 257 265 271 275 278 280 272 267 268
268 269 270 270 270 270 268 264 259 252 249 249 249 251 254 254 254 253 253 255 257 256 249 241 248 249 250 254 250 246 244 243 246 243 250 264 268 275 276 279 279 274 275
273 273 274 273 272 272 272 268 262 257 254 252 253 255 256 256 257 256 256 257 259 256 248 250 250 250 253 256 252 254 252 249 247 251 250 262 266 269 272 275 277 278 274
274 278 279 278 278 275 274 271 267 263 261 255 255 257 259 258 257 257 259 260 261 259 255 255 255 255 256 255 257 257 253 251 252 254 253 259 265 267 269 272 274 276 276
276 279 281 282 285 282 278 276 273 268 265 262 257 258 260 260 260 260 260 262 264 264 263 261 257 258 259 257 256 260 258 255 256 258 256 255 265 266 267 270 272 274 276
278 279 281 284 287 289 286 282 279 272 269 264 261 259 260 263 263 263 265 266 267 266 264 263 262 261 260 259 257 258 261 254 255 259 257 258 262 265 265 266 269 270 275
284 284 285 285 286 286 290 288 284 281 272 270 268 264 263 263 265 265 268 270 270 269 265 266 266 265 262 260 258 258 260 254 254 256 257 257 263 264 266 264 265 268 272
288 291 290 290 290 289 288 290 291 284 278 276 273 268 266 266 266 268 272 274 275 273 272 268 266 265 265 267 261 259 260 259 259 258 256 259 261 264 265 265 265 266 271
286 289 294 294 292 293 293 289 289 287 284 279 274 270 267 271 271 271 273 276 279 279 277 274 272 268 267 262 265 267 265 261 261 259 259 262 260 264 266 265 266 266 268
288 292 291 293 295 294 295 296 294 293 289 281 279 274 271 272 279 276 277 278 283 281 282 281 276 274 271 268 268 270 268 265 260 261 261 264 267 268 268 267 266 267 268
291 293 296 295 293 294 293 293 295 294 296 288 281 281 275 280 277 283 286 285 285 284 284 284 282 279 278 276 274 275 274 268 262 263 268 269 269 271 270 267 268 267 268
292 293 296 298 297 296 294 293 293 295 298 300 290 283 286 284 287 287 289 289 288 292 290 289 287 284 281 280 282 278 279 273 269 268 271 273 274 274 273 273 271 269 268
295 296 298 298 298 297 297 297 299 298 291 290 287 292 296 290 292 294 291 291 292 293 295 299 301 296 289 286 289 286 288 284 277 275 273 276 278 275 276 275 276 276 276
297 302 301 300 300 301 297 296 297 297 298 294 294 296 294 293 295 294 292 292 297 299 302 303 313 318 321 317 306 302 305 291 284 285 281 280 280 276 274 276 280 283 284
296 298 296 295 302 304 301 298 294 294 293 294 293 293 299 301 301 296 299 304 301 296 303 309 312 321 318 324 326 328 324 313 310 304 299 294 289 287 284 280 278 284 286
295 296 295 294 300 303 303 303 299 296 291 291 295 295 299 297 297 299 300 305 309 300 304 310 315 317 310 312 314 317 308 304 297 300 299 297 294 291 286 287 289 288 293
300 304 301 299 306 309 309 305 304 301 299 298 299 301 303 300 289 293 298 291 293 299 299 298 305 301 308 309 306 298 299 301 301 301 298 291 292 292 292 294 294 294 299
304 309 305 302 306 308 305 302 304 303 301 302 303 304 305 307 302 300 299 295 296 290 292 292 290 295 298 301 311 310 310 307 304 306 304 304 302 300 304 306 306 308 303
308 311 311 310 309 306 305 305 300 304 302 302 305 306 307 308 306 303 301 297 298 299 290 288 287 288 295 303 307 306 311 311 310 307 306 307 312 310 312 311 315 313 311
309 309 305 306 308 310 310 301 299 301 301 302 306 308 308 306 306 305 300 296 296 294 288 292 294 292 292 295 297 297 300 301 303 305 306 305 305 306 307 310 312 312 311
299 302 304 306 308 309 305 303 302 307 307 304 303 305 305 306 309 308 305 307 305 303 304 302 298 291 288 289 289 294 293 296 292 295 298 302 302 302 302 302 302 304 306